Вернуться в каталог

COSMOS 158

АктивенВоенныеLEO
NORAD 2801·PAYLOAD·🇷🇺 Russia

Запущен May 15, 1967 с Plesetsk Cosmodrome

Loading…

Ближайшие Пролёты (ближайшие 24 часа)

TLE

СвежийSource: Space-Track

Эпоха: Sep 14, 2026, 07:09 UTC

1 02801U 67045A   26257.29860530 -.00000008  00000-0  59104-5 0  9991
2 02801  74.0376 261.2603 0055782  87.0800 273.6736 14.36948429109228

Отслеживайте COSMOS 158 в реальном времени с AllMySat

Download on the App Store